Regional Weather Roundup
Issued by NWS

Home | Current Version | Previous Version | Text Only | Print | Product List | Glossary Off
Versions: 1 2 3 4 5 6 7 8 9 10 11 12 13 14 15 16 17 18 19 20 21 22 23 24 25 26 27 28 29 30 31 32 33 34 35 36 37 38 39 40 41 42 43 44 45 46 47 48 49 50

000
ASUS45 KTFX 101204
RWRMT
MONTANA HOURLY WEATHER ROUNDUP
NATIONAL WEATHER SERVICE GREAT FALLS MT
604 AM MDT THU JUL 10 2014

NOTE: "FAIR" INDICATES FEW OR NO CLOUDS BELOW 12000 FEET WITH NO
SIGNIFICANT WEATHER AND/OR OBSTRUCTIONS TO VISIBILITY.

* THESE STATIONS ARE NOT UNDER NWS QUALITY CONTROL. THEY DO NOT
   REPORT WEATHER SUCH AS PRECIPITATION OR FOG.

MTZ001>007-043-101300-
WEST OF THE DIVIDE
CITY           SKY/WX    TMP DP  RH WIND       PRES   REMARKS
KALISPELL      FOG       50  48  93 CALM      29.85R VSB 3
MISSOULA       CLEAR     54  48  80 W3        29.93R
BUTTE          CLEAR     48  46  93 S5        30.07R
MULLAN PASS    CLEAR     61  36  39 VRB6      30.04S
* ESSEX        N/A      N/A N/A N/A N/A        N/A
* LOOKOUT PASS N/A       58  43  58 VRB1       N/A
* RONAN APT    CLEAR     55  50  83 N/A        N/A
* YAAK HILL    N/A       55  49  80 N/A        N/A
$$

MTZ008-052>055-101300-
SOUTHWEST MONTANA
CITY           SKY/WX    TMP DP  RH WIND       PRES   REMARKS
BOZEMAN        MOCLDY    55  54  96 CALM      29.99R
DILLON         CLEAR     57  48  72 CALM      30.03R
W YELLOWSTONE  FOG       50  50 100 CALM      30.13R
* THREE FORKS  PTCLDY    55  32  42 N/A        N/A
* BOULDER HILL N/A       57  44  62 SW9        N/A
* RAYNOLDS PAS N/A       54  27  35 E1         N/A
$$

MTZ009>010-012-014-046-048-049-054-101300-
EAST SLOPES AND CENTRAL MONTANA
CITY           SKY/WX    TMP DP  RH WIND       PRES   REMARKS
CUT BANK       CLEAR     55  52  90 NW9       29.91R
GREAT FALLS    CLEAR     61  46  58 S8        29.87R
HELENA         CLEAR     63  48  58 SW3       29.94R
* CONRAD       CLEAR     57  54  90 W6         N/A
* DEARBORN     N/A       63  48  58 S2         N/A
* EAST GLACIER N/A       50  46  86 W2         N/A
* MONARCH      N/A       61  37  41 SW9        N/A
* SWEET GRASS  N/A       55  55 100 NW16       N/A
$$

MTZ011-013-016-021-035-040-045-047-050-051-101300-
NORTH CENTRAL MONTANA
CITY           SKY/WX    TMP DP  RH WIND       PRES   REMARKS
HAVRE          CLEAR     63  52  68 W9        29.77R
* CHESTER      N/A       60  51  72 NW11G17    N/A
* DENTON       N/A       67  46  47 W8         N/A
* GEYSER       N/A       67  43  42 W12G17     N/A
* JUDITH GAP   N/A       62  50  65 N/A        N/A
* LOMA         N/A       63  50  63 SW4        N/A
$$

MTZ017>020-022>027-061-062-101300-
NORTHEAST MONTANA
CITY           SKY/WX    TMP DP  RH WIND       PRES   REMARKS
GLASGOW        MOCLDY    70  57  64 SE15      29.69S
GLENDIVE       CLOUDY    64  57  78 SE6       29.86S
JORDAN         CLOUDY    70  57  64 S15       29.75R
SIDNEY         CLOUDY    66  59  78 S20G29    29.81S
WOLF POINT     CLOUDY    72  57  59 S14G25    29.74S
* BEAVER HILL  N/A       62  55  78 S12        N/A
* CIRCLE       N/A       71  59  66 S9G17      N/A
* LINDSAY DVD  N/A       61  59  93 SE9        N/A
* NAVAJO       N/A       62  58  87 S6         N/A
$$

MTZ028>042-056>058-101300-
SOUTHCENTRAL AND SOUTHEAST MONTANA
CITY           SKY/WX    TMP DP  RH WIND       PRES   REMARKS
BAKER          LGT RAIN  63  57  81 SE7       29.86S
BILLINGS       CLOUDY    70  55  59 W6        29.88S
LIVINGSTON     MOCLDY    66  52  61 NW9       29.97R
MILES CITY     LGT RAIN  68  61  78 NW3       29.84R
* LAUREL APT   CLOUDY    66  52  61 N/A        N/A
* ROUNDUP APT  PTCLDY    70  50  49 SW9        N/A
* ALZADA       N/A       58  57  96 NE1        N/A
* HYSHAM       N/A       69  53  57 SE3        N/A
* LAME DEER    N/A       70  53  55 W8         N/A
* REED POINT   N/A       70  50  49 W6         N/A
* ROSCOE HILL  N/A       65  45  49 S6         N/A
$$

REGIONAL REPORTS...DAKOTAS
CITY           SKY/WX    TMP DP  RH WIND       PRES   REMARKS
WILLISTON      CLOUDY    66  55  68 S6        29.80R
DICKINSON      CLOUDY    61  55  81 SE9       29.84S
CROSBY         CLEAR     66  61  84 S18G23    29.77R
BISMARCK       FOG       61  55  81 S6        29.90S
GRAND FORKS    CLEAR     57  54  90 SE6       29.94S
FARGO          CLEAR     63  52  68 SE9       29.96S
BUFFALO SD     MOCLDY    59  55  87 CALM      29.82S
RAPID CITY     CLOUDY    61  57  87 SE10      29.86F
$$

REGIONAL REPORTS...WYOMING/IDAHO/WASHINGTON
CITY           SKY/WX    TMP DP  RH WIND       PRES   REMARKS
GILLETTE       MOCLDY    63  57  81 S10       29.93R
SHERIDAN       MOCLDY    63  54  73 SW6       29.91R
YELLOWSTONE LA CLOUDY    54  46  74 CALM      30.22S
SALMON         CLEAR     52  50  93 CALM      30.04R
MULLAN PASS    CLEAR     61  36  39 VRB6      30.04S
SAND POINT     CLEAR     50  50 100 CALM      29.81R
SPOKANE        CLEAR     63  39  41 S9        29.82R

$$



USA.gov is the U.S. government's official web portal to all federal, state and local government web resources and services.